Fort Pierce, FL

5:02 PM EST on February 06, 2016 (GMT -0500)
Saint Lucie County International

Weather History for KFPR - June, 2013

Change the Weather History Date:

Saturday, June 22, 2013

  Actual Average Record
Temperature  
Mean Temperature 78 °F -  
Max Temperature 87 °F 89 °F 96 °F (1944)
Min Temperature 69 °F 71 °F 66 °F (1992)
Cooling Degree Days 12    
Growing Degree Days 28 (Base 50)    
Moisture  
Dew Point 70 °F    
Average Humidity 82    
Maximum Humidity 96    
Minimum Humidity 63    
Precipitation  
Precipitation 0.00 in - - ()
Sea Level Pressure  
Sea Level Pressure 30.09 in    
Wind  
Wind Speed 2 mph (East)    
Max Wind Speed 12 mph    
Max Gust Speed 18 mph    
Visibility 7 miles    
Events      
Averages and records for this station are not official NWS values.
T = Trace of Precipitation, MM = Missing Value Source: NWS Daily Summary

Daily Weather History Graph

Daily Weather History Graph

Search for Another Location

Airport or City:

Trip Planner

Search our weather history database for the weather conditions in past years. The results will help you decide how hot, cold, wet, or windy it might be!

Date:

Astronomy

Jun. 22, 2013 Rise Set
Actual Time 6:27 AM EDT 8:19 PM EDT
Civil Twilight 6:00 AM EDT 8:46 PM EDT
Nautical Twilight 5:28 AM EDT 9:18 PM EDT
Astronomical Twilight 4:54 AM EDT 9:52 PM EDT
Moon 7:38 PM EDT (6/22) 5:33 AM EDT (6/22)
Length of Visible Light 14h 45m
Length of Day
13h 52m
Waxing Gibbous, 99% of the Moon is Illuminated
Jun 22
Waxing Gibbous
Jun 23
Full
Jun 30
Last Quarter
Jul 8
New
Jul 15
First Quarter

Hourly Weather History & Observations

Time (EDT) Temp. Heat Index Dew Point Humidity Pressure Visibility Wind Dir Wind Speed Gust Speed Precip Events Conditions
12:34 AM 71.6 °F - 69.8 °F 94% 30.11 in 2.0 mi Calm Calm - N/A   Clear
12:45 AM 71.6 °F - 69.8 °F 94% 30.11 in 1.2 mi Calm Calm - N/A   Partly Cloudy
12:50 AM 71.6 °F - 69.8 °F 94% 30.11 in 3.0 mi West 3.5 mph - N/A   Partly Cloudy
12:53 AM 71.1 °F - 69.1 °F 93% 30.11 in 5.0 mi Calm Calm - N/A   Partly Cloudy
1:53 AM 71.1 °F - 70.0 °F 96% 30.09 in 7.0 mi Calm Calm - N/A   Partly Cloudy
2:36 AM 71.6 °F - 69.8 °F 94% 30.08 in 1.8 mi Calm Calm - N/A   Clear
2:45 AM 71.6 °F - 69.8 °F 94% 30.08 in 3.0 mi Calm Calm - N/A   Clear
2:53 AM 71.1 °F - 69.1 °F 93% 30.08 in 8.0 mi Calm Calm - N/A   Clear
3:53 AM 70.0 °F - 68.0 °F 93% 30.07 in 8.0 mi Calm Calm - N/A   Clear
4:09 AM 69.8 °F - 68.0 °F 94% 30.07 in 1.8 mi Calm Calm - N/A   Clear
4:19 AM 69.8 °F - 68.0 °F 94% 30.07 in 3.0 mi Calm Calm - N/A   Clear
4:36 AM 69.8 °F - 66.2 °F 88% 30.07 in 1.5 mi Calm Calm - N/A   Clear
4:47 AM 69.8 °F - 68.0 °F 94% 30.07 in 3.0 mi Calm Calm - N/A   Clear
4:53 AM 69.1 °F - 68.0 °F 96% 30.06 in 7.0 mi Calm Calm - N/A   Clear
5:53 AM 69.1 °F - 66.9 °F 93% 30.07 in 10.0 mi Calm Calm - N/A   Clear
6:53 AM 69.1 °F - 66.9 °F 93% 30.08 in 9.0 mi Calm Calm - N/A   Clear
7:53 AM 75.9 °F - 73.0 °F 91% 30.10 in 9.0 mi Calm Calm - N/A   Clear
8:53 AM 82.9 °F 88.0 °F 72.0 °F 69% 30.11 in 10.0 mi ENE 3.5 mph - N/A   Clear
9:53 AM 84.9 °F 90.1 °F 71.1 °F 63% 30.11 in 10.0 mi Calm Calm - N/A   Partly Cloudy
10:53 AM 84.9 °F 91.4 °F 73.0 °F 67% 30.13 in 10.0 mi East 6.9 mph - N/A   Scattered Clouds
11:53 AM 86.0 °F 92.2 °F 72.0 °F 63% 30.13 in 10.0 mi ESE 8.1 mph - N/A   Partly Cloudy
12:53 PM 86.0 °F 93.0 °F 73.0 °F 65% 30.12 in 10.0 mi East 9.2 mph - N/A   Scattered Clouds
1:53 PM 86.0 °F 93.8 °F 73.9 °F 67% 30.12 in 10.0 mi East 11.5 mph 18.4 mph N/A   Scattered Clouds
2:53 PM 86.0 °F 92.2 °F 72.0 °F 63% 30.10 in 10.0 mi East 10.4 mph - N/A   Partly Cloudy
3:53 PM 86.0 °F 92.2 °F 72.0 °F 63% 30.09 in 10.0 mi East 11.5 mph - N/A   Partly Cloudy
4:53 PM 84.0 °F 88.4 °F 70.0 °F 63% 30.09 in 10.0 mi ESE 11.5 mph - N/A   Clear
5:53 PM 82.9 °F 87.5 °F 71.1 °F 67% 30.08 in 10.0 mi East 6.9 mph - N/A   Clear
6:53 PM 82.9 °F 87.5 °F 71.1 °F 67% 30.07 in 10.0 mi East 9.2 mph - N/A   Partly Cloudy
7:53 PM 82.0 °F 86.3 °F 71.1 °F 69% 30.08 in 10.0 mi East 6.9 mph - N/A   Clear
8:53 PM 79.0 °F - 72.0 °F 79% 30.09 in 10.0 mi East 4.6 mph - N/A   Clear
9:53 PM 78.1 °F - 72.0 °F 81% 30.09 in 10.0 mi East 3.5 mph - N/A   Clear
10:53 PM 78.1 °F - 73.0 °F 84% 30.11 in 10.0 mi East 5.8 mph - N/A   Clear
11:53 PM 78.1 °F - 72.0 °F 81% 30.12 in 10.0 mi East 5.8 mph - N/A   Clear